Location: Berlise
(49.6641°N, 4.1077°E)
Time: 20:16:10
(UTC+00:00)

Cosmos 1072 Rocket - Pass Details

Date: 27 January 2021
Orbit: 949 x 1008 km, 82.9° (Epoch: 27 February)

Event Time Altitude Azimuth Distance (km) Brightness Sun altitude
Exits shadow 04:22:08 55° 185° (S) 1,174 4.7 -29.1°
Maximum altitude 04:23:40 88° 102° (ESE) 995 4.4 -28.8°
Drops below altitude 10° 04:30:04 10° 10° (N) 2,777 7.0 -27.8°
Sets 04:32:37 0° 10° (N) 3,737 7.7 -27.4°
